GFSNIL_sfc_wetblb_132.txt.gz
Wetbulb
60.64 60.25 59.90 59.07 58.71 57.78 57.63 57.54 57.14 57.17 57.85 57.73 57.68 57.52 57.08 57.11 57.00 57.45 57.02 57.04 57.39 57.29
59.43 59.42 59.28 58.96 58.38 58.09 57.23 57.12 55.71 55.88 56.79 57.11 57.08 57.32 57.34 58.04 57.60 57.46 57.34 57.45 57.29 57.20
58.78 59.24 59.24 57.93 57.26 56.71 57.10 55.57 55.10 55.11 56.21 56.65 57.11 57.21 57.35 58.34 58.44 57.86 57.83 57.48 56.97 56.73
57.48 57.81 57.89 57.46 56.50 56.71 55.27 54.85 55.46 55.66 55.94 56.59 57.15 57.83 57.88 58.20 58.25 57.60 57.58 57.61 56.53 56.04
55.54 54.12 54.99 55.84 56.51 53.79 55.03 54.47 55.71 56.81 57.25 57.64 57.65 58.12 57.95 58.00 57.97 57.23 56.52 56.48 55.60 54.47
52.56 52.85 53.47 54.06 53.47 53.56 53.80 54.93 56.04 56.93 57.12 57.25 57.52 57.56 57.45 57.69 56.72 54.76 54.30 53.71 52.26 52.83
50.92 51.15 50.80 50.95 52.04 52.80 52.80 53.20 53.59 54.22 54.37 53.13 53.05 52.19 50.20 49.15 49.49 49.20 48.68 47.65 46.98 46.87
42.52 42.60 42.09 41.88 43.38 47.03 47.92 48.10 47.48 47.20 45.80 44.75 45.12 43.54 44.37 44.12 44.34 43.86 43.50 42.89 42.94 42.66
39.72 39.09 38.96 37.83 37.86 41.59 41.49 42.29 41.26 40.42 40.68 40.98 40.14 41.43 41.78 41.74 41.92 41.46 40.48 39.90 40.21 39.74
37.11 37.17 36.74 36.33 36.25 35.80 36.06 36.40 37.05 37.08 38.27 38.66 39.47 40.04 40.04 38.46 38.73 38.84 38.66 38.08 36.65 36.22
35.72 35.41 34.74 34.81 34.58 33.85 33.75 34.26 34.49 36.22 37.16 36.95 36.19 38.59 38.55 37.63 36.33 35.56 36.83 36.14 34.98 34.61
34.39 32.10 32.05 30.92 31.83 32.38 32.42 34.93 33.97 34.20 33.66 33.82 33.78 36.99 37.61 36.40 33.44 34.25 33.81 33.24 33.74 33.64
32.74 31.13 30.22 31.08 31.62 31.73 33.49 33.07 33.05 32.67 32.76 32.29 32.58 35.75 36.95 35.99 32.80 32.77 30.69 29.33 32.34 32.45
29.43 29.78 30.61 30.83 30.19 32.53 32.31 32.05 31.80 32.22 31.79 32.27 31.81 31.69 36.21 36.97 32.92 32.63 32.22 31.41 28.80 29.34

GFSNIL_sfc_wetblb_138.txt.gz
Wetbulb
63.22 63.41 63.45 63.51 63.23 62.92 63.09 61.93 62.47 62.08 61.88 61.94 61.95 61.75 61.99 61.57 61.61 61.16 59.65 59.42 59.61 58.67
63.46 63.36 63.18 63.48 63.81 63.48 63.07 63.14 63.21 62.83 61.93 62.17 62.07 61.83 61.42 59.74 58.99 59.25 59.14 58.61 58.32 58.06
63.38 63.48 63.60 63.65 63.13 63.37 63.54 63.11 61.99 61.85 61.64 61.61 61.43 61.28 60.75 59.01 58.50 58.06 58.14 58.16 57.66 57.79
62.71 63.25 63.46 63.42 63.65 63.65 63.15 62.57 61.77 61.21 61.02 60.75 60.59 60.52 60.02 58.98 58.60 57.37 57.87 58.23 57.35 57.10
61.76 62.61 62.69 62.72 63.20 63.29 62.29 62.59 61.23 60.85 60.26 59.87 59.69 59.80 59.26 58.67 58.21 57.60 56.79 57.54 57.34 56.44
60.27 60.72 60.92 61.35 61.77 61.84 61.45 60.77 59.85 59.57 58.90 58.71 58.87 58.81 59.07 58.66 58.73 57.83 57.98 57.15 54.79 53.36
58.76 59.14 59.51 60.00 60.12 60.19 59.64 59.44 58.72 58.56 58.38 58.36 58.38 58.28 58.16 56.59 56.21 53.34 51.55 49.57 49.43 49.14
57.49 58.14 58.36 58.22 58.01 58.02 57.69 57.79 57.47 56.98 56.33 55.18 53.80 50.68 49.58 48.80 49.25 48.20 46.66 45.97 46.22 47.49
54.22 53.81 53.65 53.77 52.54 51.83 51.28 52.15 50.97 48.00 46.53 46.19 42.70 42.53 43.72 46.57 47.42 46.83 46.25 45.39 44.05 43.57
47.04 45.99 46.46 45.48 43.80 43.25 43.69 43.10 42.88 44.13 44.22 43.50 43.04 41.60 41.70 40.77 45.54 44.92 44.09 43.35 43.01 42.21
45.54 44.89 41.81 41.20 40.39 41.25 42.92 44.12 44.24 44.34 45.03 43.81 41.64 40.59 40.20 38.35 43.93 43.75 43.01 42.36 40.56 39.52
41.91 40.14 39.83 39.17 39.98 40.53 40.09 39.61 40.51 39.45 39.05 38.74 37.95 39.32 39.28 39.46 39.72 38.02 36.94 37.10 37.48 37.22
40.40 39.01 38.99 39.60 38.62 36.60 38.88 37.04 37.78 35.82 37.69 35.69 37.22 37.99 38.39 38.23 36.79 34.46 34.80 34.58 34.09 33.10
38.62 38.19 39.44 37.64 36.06 36.04 37.31 36.44 35.48 34.75 34.91 35.08 36.06 37.40 37.94 37.19 35.68 35.39 34.50 34.71 34.48 34.20

GFSNIL_sfc_wetblb_141.txt.gz
Wetbulb
64.06 63.71 63.62 64.26 64.04 63.59 62.93 62.86 63.34 62.45 62.46 62.30 61.99 61.83 62.14 61.90 61.70 61.69 61.17 60.65 60.70 59.67
63.81 63.57 63.06 63.74 64.15 64.23 63.99 63.70 63.69 63.17 62.26 61.92 61.86 62.09 62.09 61.39 60.47 60.32 59.85 59.29 58.86 58.47
63.64 63.52 63.71 63.90 63.46 63.87 64.11 64.10 63.29 62.86 62.59 62.11 62.27 62.34 61.97 60.95 60.28 58.83 58.59 58.02 57.53 57.32
63.33 63.63 63.65 63.45 63.47 63.54 63.86 63.68 63.02 62.89 62.72 62.14 61.86 62.05 61.30 60.09 59.07 57.41 57.11 57.04 56.63 56.36
62.25 62.77 63.05 62.99 63.15 63.45 62.60 63.44 63.24 62.76 61.85 61.58 61.50 61.49 60.36 59.22 57.91 56.87 56.14 56.32 56.25 55.96
60.90 61.46 61.99 62.44 62.71 62.81 63.11 63.09 62.88 62.08 61.14 60.89 60.81 60.64 60.39 59.70 58.72 56.96 56.92 56.57 56.12 56.20
59.71 60.35 61.00 61.89 62.39 62.57 62.83 62.33 61.82 61.40 60.79 60.30 60.06 59.54 58.90 58.49 58.45 57.73 56.27 55.50 54.63 52.36
58.38 59.15 59.67 59.93 60.41 60.85 60.88 60.64 60.59 59.53 59.08 58.84 58.12 56.91 56.81 55.23 56.41 53.79 50.55 48.74 49.17 48.45
56.91 57.03 57.19 57.54 57.27 57.36 57.49 57.72 57.25 56.11 55.77 54.97 48.70 45.17 46.64 50.19 50.06 47.91 46.64 44.98 44.47 44.14
52.80 52.59 53.63 50.66 48.40 48.29 48.92 48.40 47.89 48.92 48.36 47.56 45.81 42.73 43.56 43.47 47.64 46.80 46.50 44.98 43.58 41.56
47.60 47.26 44.28 45.10 45.90 43.83 43.96 45.27 44.02 43.40 44.78 43.30 42.03 41.79 41.60 40.31 44.95 44.55 44.27 43.57 41.81 39.70
46.50 45.43 42.51 42.62 43.11 43.48 41.99 40.82 42.24 40.61 40.88 40.22 38.78 40.17 39.93 41.30 40.33 38.46 37.90 38.05 38.34 37.88
44.61 43.71 43.06 42.98 40.72 36.74 41.13 39.12 38.59 37.02 38.85 37.32 38.32 39.21 39.39 40.14 37.26 35.20 34.97 34.36 33.53 33.39
41.18 40.88 42.80 41.23 37.78 38.34 37.58 37.02 36.80 36.44 36.25 36.29 37.06 37.59 38.93 38.78 36.04 35.78 34.64 33.96 33.40 33.36

GFSNIL_sfc_wetblb_144.txt.gz
Wetbulb
62.86 62.51 62.16 61.70 61.81 61.28 61.29 61.15 61.02 60.36 60.19 59.89 60.23 60.25 60.34 60.21 60.05 60.04 59.44 58.55 58.35 58.05
62.88 62.57 62.31 62.50 62.43 62.28 62.36 62.18 61.50 60.88 60.14 59.94 59.90 59.80 59.90 59.69 59.40 59.35 59.05 59.24 59.14 58.97
62.72 62.72 62.66 62.59 62.02 62.27 62.55 62.26 61.45 60.96 60.47 60.10 60.14 59.96 59.62 59.28 59.33 58.85 59.53 59.18 58.49 58.20
62.52 62.58 62.47 62.06 61.87 62.05 62.37 62.08 61.50 61.12 60.58 60.24 60.02 59.79 59.35 59.17 59.04 58.92 58.68 58.07 57.38 56.98
61.29 62.21 61.81 61.41 61.65 61.76 61.54 61.99 61.70 61.40 60.67 60.02 59.74 59.69 59.26 59.41 59.25 58.48 57.39 56.96 56.05 55.85
59.41 60.15 60.85 61.20 61.22 61.33 61.21 61.29 61.43 61.09 60.31 60.41 60.23 59.62 59.54 60.08 59.16 58.10 57.21 56.45 55.50 55.37
57.80 58.94 59.66 60.25 60.69 60.74 60.88 60.55 60.57 60.87 60.76 60.15 59.76 59.35 58.66 58.90 58.63 57.59 56.42 55.50 55.28 55.10
57.09 57.98 58.22 58.24 58.87 59.69 59.70 60.01 60.34 59.99 59.44 58.85 58.29 57.66 56.77 55.68 57.19 56.59 54.44 53.19 53.73 53.09
54.53 54.70 55.64 55.90 54.94 56.59 57.44 58.30 58.40 57.92 58.25 57.03 53.65 47.59 48.40 52.32 54.35 53.20 51.47 50.34 47.41 46.45
49.78 48.79 49.52 49.30 48.60 49.35 51.84 52.88 53.07 54.19 54.31 54.34 51.32 46.12 46.55 45.76 53.09 52.05 51.38 48.38 45.38 41.92
44.22 45.58 44.10 44.89 47.23 45.79 46.79 49.67 49.25 48.08 51.19 52.43 49.27 44.34 44.69 43.00 49.94 49.25 48.11 46.52 44.32 42.35
42.96 42.97 42.22 42.82 45.34 46.27 43.89 43.55 45.14 44.20 45.49 46.34 43.00 42.15 42.41 43.99 43.79 40.94 39.89 40.45 41.04 40.23
41.44 42.85 42.97 45.49 44.31 40.61 44.24 44.24 40.94 38.76 42.88 40.16 40.70 40.37 41.42 43.04 40.42 37.26 36.00 34.65 35.30 34.67
39.87 42.08 43.75 43.98 42.18 38.96 40.95 37.60 37.91 38.02 35.90 36.99 38.21 38.82 40.68 40.32 38.16 37.30 34.85 34.21 33.09 32.91

GFSNIL_sfc_wetblb_147.txt.gz
Wetbulb
62.39 62.07 61.71 61.32 60.96 60.36 59.82 59.70 60.15 59.47 59.32 58.99 59.20 59.38 59.47 59.43 59.26 59.08 58.43 57.96 57.93 57.82
62.39 62.24 61.88 61.92 61.69 61.19 61.08 60.80 60.61 60.02 59.24 59.20 59.06 58.99 59.00 58.95 58.80 59.23 59.14 58.63 58.37 57.93
62.32 62.43 62.62 62.42 61.39 61.21 61.56 61.47 60.97 60.32 59.57 59.29 58.99 58.84 58.87 58.79 59.07 58.74 58.94 58.91 58.65 58.34
61.99 62.32 62.42 62.20 61.97 61.79 61.73 61.60 61.15 60.79 59.75 59.25 58.87 58.88 58.47 58.45 58.50 58.22 58.47 58.65 58.27 58.00
60.87 61.55 61.73 61.68 62.01 62.18 61.57 61.76 61.39 60.93 60.25 59.58 59.27 59.00 58.30 57.88 58.17 58.05 57.87 58.08 57.93 57.73
59.13 59.72 60.45 61.43 61.85 61.94 61.51 61.49 61.35 60.86 60.03 59.84 59.51 59.13 59.01 58.90 58.53 58.40 58.32 58.33 57.94 57.18
55.62 58.25 59.31 60.47 61.27 61.21 61.47 60.79 60.57 60.63 60.59 60.18 59.91 59.32 58.93 58.73 58.64 58.57 58.54 58.28 57.30 56.58
53.44 55.68 57.36 58.02 59.01 60.18 60.12 60.26 60.48 60.12 60.09 60.12 59.66 59.04 58.42 57.88 58.25 58.40 57.48 56.01 55.56 55.64
50.66 52.18 52.85 54.48 55.68 56.68 57.51 58.45 58.78 58.84 59.03 58.62 58.06 52.61 49.94 55.41 57.60 57.36 55.62 54.49 53.91 53.83
47.15 47.86 49.98 51.13 50.97 50.93 54.16 56.00 56.22 57.32 58.00 58.01 58.17 48.84 47.94 47.31 56.80 56.30 55.88 55.08 52.86 49.35
41.28 43.57 44.28 43.31 45.32 48.62 49.83 52.31 53.03 55.30 56.98 57.54 57.01 46.62 46.82 44.75 56.66 55.10 55.27 54.18 51.38 49.18
39.56 40.18 39.84 41.28 45.00 47.56 47.34 48.79 51.19 53.07 53.10 54.11 53.51 44.84 45.66 45.95 53.25 50.69 50.00 50.30 48.99 47.85
38.06 36.77 38.34 40.99 43.05 45.13 46.53 47.40 47.18 44.15 47.85 46.04 51.63 43.05 43.90 46.73 49.05 40.89 38.99 34.33 38.08 36.78
36.67 36.43 38.01 39.93 40.91 42.75 43.27 40.98 39.84 39.98 39.55 38.95 40.47 40.38 42.16 43.18 41.89 43.33 37.40 37.43 35.37 35.90